Portland, ME

6:06 AM EST on December 14, 2019 (GMT -0500)
Portland International

Weather History for KPWM - October, 2019

Change the Weather History Date:

Saturday, October 12, 2019

  Actual Average Record
Temperature  
Mean Temperature 54 °F 50 °F  
Max Temperature 57 °F 60 °F 81 °F (1938)
Min Temperature 50 °F 40 °F 18 °F (1964)
Degree Days  
Heating Degree Days 12 15  
Month to date heating degree days 136 157  
Since 1 July heating degree days 298 378  
Cooling Degree Days 0 0  
Month to date cooling degree days 0 0  
Year to date cooling degree days 474 358  
Growing Degree Days 4 (Base 50)    
Moisture  
Dew Point 49 °F    
Average Humidity 86    
Maximum Humidity 92    
Minimum Humidity 77    
Precipitation  
Precipitation 0.04 in 0.15 in 3.91 in (2007)
Month to date precipitation 1.04 1.83  
Year to date precipitation 35.77 35.26  
Snow  
Snow 0.00 in 0.00 in T in (1934)
Month to date snowfall 0.0 0.0  
Since 1 July snowfall 0.0 0.0  
Since 1 September snowfall 0.0 0.0  
Snow Depth 0.00 in    
Sea Level Pressure  
Sea Level Pressure 30.00 in    
Wind  
Wind Speed 8 mph ()    
Max Wind Speed 15 mph    
Max Gust Speed 21 mph    
Visibility 7.7 miles    
Events Rain    
T = Trace of Precipitation, MM = Missing Value Source: Averaged Metar Reports

Daily Weather History Graph

Daily Weather History Graph

Search for Another Location

Airport or City:

Astronomy

Oct. 12, 2019 Rise Set
Actual Time 6:51 AM EDT 6:03 PM EDT
Civil Twilight 6:22 AM EDT 6:32 PM EDT
Nautical Twilight 5:49 AM EDT 7:05 PM EDT
Astronomical Twilight 5:16 AM EDT 7:38 PM EDT
Moon 6:01 PM EDT (10/12) 5:20 AM EDT (10/12)
Length of Visible Light 12h 09m
Length of Day
11h 11m
Waxing Gibbous, 99% of the Moon is Illuminated
Oct 12
Waxing Gibbous
Oct 13
Full
Oct 21
Last Quarter
Oct 27
New
Nov 4
First Quarter

Hourly Weather History & Observations

Time (EDT) Temp. Dew Point Humidity Pressure Visibility Wind Dir Wind Speed Gust Speed Precip Events Conditions
12:51 AM 52.0 °F 46.9 °F 83% 30.12 in 5.0 mi NE 12.7 mph 20.7 mph 0.00 in Rain Light Rain
1:25 AM 51.1 °F 48.9 °F 92% 30.11 in 3.0 mi NNE 8.1 mph - 0.01 in Rain Light Rain
1:33 AM 51.1 °F 48.9 °F 92% 30.10 in 4.0 mi NNE 6.9 mph - 0.01 in Rain Light Rain
1:48 AM 51.8 °F 48.2 °F 88% 30.09 in 3.0 mi NNE 8.1 mph - 0.02 in Rain Light Rain
1:51 AM 51.1 °F 48.0 °F 89% 30.10 in 3.0 mi North 9.2 mph - 0.02 in Rain Light Rain
1:58 AM 51.1 °F 48.0 °F 89% 30.09 in 4.0 mi North 6.9 mph - 0.00 in Rain Light Rain
2:05 AM 51.1 °F 48.0 °F 89% 30.09 in 4.0 mi North 9.2 mph - 0.00 in   Overcast
2:13 AM 51.1 °F 48.0 °F 89% 30.08 in 4.0 mi NNE 10.4 mph - 0.00 in Rain Light Rain
2:51 AM 51.1 °F 48.0 °F 89% 30.07 in 5.0 mi North 11.5 mph - 0.00 in   Overcast
3:04 AM 51.1 °F 48.0 °F 89% 30.06 in 6.0 mi NNE 10.4 mph - N/A   Overcast
3:14 AM 51.1 °F 48.0 °F 89% 30.05 in 7.0 mi North 10.4 mph - 0.00 in Rain Light Rain
3:51 AM 51.1 °F 48.0 °F 89% 30.05 in 10.0 mi NNE 11.5 mph - 0.01 in   Overcast
4:51 AM 50.0 °F 46.9 °F 89% 30.03 in 10.0 mi NNE 11.5 mph - 0.00 in   Overcast
5:19 AM 50.0 °F 46.9 °F 89% 30.02 in 10.0 mi NNE 9.2 mph - N/A   Overcast
5:41 AM 50.0 °F 46.9 °F 89% 30.02 in 7.0 mi North 9.2 mph - N/A   Overcast
5:51 AM 50.0 °F 46.9 °F 89% 30.02 in 6.0 mi North 9.2 mph - N/A   Overcast
6:09 AM 50.0 °F 46.9 °F 89% 30.02 in 5.0 mi NNE 10.4 mph - N/A   Overcast
6:30 AM 50.0 °F 46.9 °F 89% 30.02 in 6.0 mi North 12.7 mph - N/A   Overcast
6:51 AM 50.0 °F 46.9 °F 89% 30.02 in 5.0 mi North 8.1 mph - N/A   Overcast
7:31 AM 50.0 °F 46.9 °F 89% 30.01 in 6.0 mi North 10.4 mph - 0.00 in   Overcast
7:51 AM 50.0 °F 46.9 °F 89% 30.01 in 7.0 mi NNE 10.4 mph - 0.00 in   Overcast
8:41 AM 51.1 °F 46.9 °F 86% 30.00 in 10.0 mi NNE 9.2 mph - N/A   Overcast
8:51 AM 51.1 °F 46.9 °F 86% 30.00 in 10.0 mi North 9.2 mph - N/A   Overcast
9:51 AM 52.0 °F 48.0 °F 86% 30.00 in 10.0 mi North 11.5 mph - N/A   Overcast
10:51 AM 53.1 °F 48.9 °F 86% 30.00 in 9.0 mi North 10.4 mph - N/A   Overcast
11:51 AM 54.0 °F 48.9 °F 83% 29.98 in 6.0 mi North 11.5 mph - N/A   Haze
12:03 PM 54.0 °F 50.0 °F 86% 29.98 in 8.0 mi North 9.2 mph - N/A   Overcast
12:20 PM 54.0 °F 50.0 °F 86% 29.97 in 9.0 mi North 9.2 mph - N/A   Overcast
1:16 PM 54.0 °F 51.1 °F 90% 29.97 in 3.0 mi North 10.4 mph - 0.00 in Rain Light Rain
1:23 PM 54.0 °F 51.1 °F 90% 29.97 in 3.0 mi North 9.2 mph - 0.01 in Rain Light Rain
1:51 PM 54.0 °F 51.1 °F 90% 29.97 in 5.0 mi North 5.8 mph - 0.01 in   Overcast
2:48 PM 55.4 °F 51.8 °F 88% 29.94 in 10.0 mi North 10.4 mph - 0.00 in   Overcast
2:51 PM 55.0 °F 51.1 °F 86% 29.94 in 10.0 mi North 8.1 mph - 0.00 in   Overcast
3:20 PM 55.9 °F 50.0 °F 80% 29.94 in 10.0 mi North 9.2 mph - N/A   Overcast
3:34 PM 55.9 °F 50.0 °F 80% 29.94 in 10.0 mi North 6.9 mph - N/A   Overcast
3:51 PM 55.9 °F 50.0 °F 80% 29.94 in 10.0 mi North 9.2 mph - N/A   Overcast
4:33 PM 57.0 °F 50.0 °F 77% 29.94 in 10.0 mi NNE 4.6 mph - N/A   Overcast
4:51 PM 55.9 °F 50.0 °F 80% 29.94 in 10.0 mi North 6.9 mph - N/A   Overcast
5:51 PM 55.9 °F 48.9 °F 77% 29.94 in 10.0 mi North 4.6 mph - N/A   Overcast
6:29 PM 55.0 °F 50.0 °F 83% 29.94 in 10.0 mi North 5.8 mph - N/A   Overcast
6:51 PM 55.0 °F 50.0 °F 83% 29.95 in 10.0 mi North 4.6 mph - N/A   Overcast
7:26 PM 55.0 °F 50.0 °F 83% 29.95 in 10.0 mi NNE 5.8 mph - N/A   Overcast
7:39 PM 55.0 °F 50.0 °F 83% 29.95 in 10.0 mi NNW 3.5 mph - N/A   Overcast
7:51 PM 55.0 °F 50.0 °F 83% 29.96 in 10.0 mi NW 3.5 mph - N/A   Overcast
8:24 PM 55.0 °F 50.0 °F 83% 29.96 in 10.0 mi North 5.8 mph - N/A   Overcast
8:51 PM 55.0 °F 50.0 °F 83% 29.96 in 10.0 mi Calm Calm - N/A   Overcast
9:51 PM 55.0 °F 50.0 °F 83% 29.96 in 10.0 mi North 3.5 mph - N/A   Overcast
10:51 PM 52.0 °F 48.9 °F 89% 29.96 in 10.0 mi WNW 4.6 mph - N/A   Mostly Cloudy
11:43 PM 54.0 °F 50.0 °F 86% 29.96 in 10.0 mi NW 4.6 mph - N/A   Overcast
11:51 PM 54.0 °F 50.0 °F 86% 29.96 in 10.0 mi NW 4.6 mph - N/A   Overcast